Location: Asheville, NC
(35.6000°N, 82.5500°W)
Time: 00:58:25
(UTC-04:00)

ISS - Pass Details

Date: 18 May 2019
Orbit: 407 x 410 km, 51.6° (Epoch: 23 May)

Event Time Altitude Azimuth Distance (km) Brightness Sun altitude
Rises 21:23:33 0° 218° (SW) 2,311 0.1 -10.2°
Maximum altitude 21:28:51 57° 135° (SE) 482 -3.8 -11.1°
Drops below altitude 10° 21:32:05 10° 56° (NE) 1,465 -1.2 -11.7°
Sets 21:34:11 0° 52° (NE) 2,329 -0.1 -12.0°
